AirNav  
 
 555 users online  

1FD4 Corkscrew Trace Airpark
Estero, Florida, USA

GOING TO ESTERO?


FAA INFORMATION EFFECTIVE 25 MARCH 2021

Location

FAA Identifier: 1FD4
Lat/Long: 26-26-43.2840N 081-36-26.2910W
26-26.721400N 081-36.438183W
26.4453567,-81.6073031
(estimated)
Elevation: 29 ft. / 9 m (estimated)
Variation: 02W (1985)
From city: 13 miles E of ESTERO, FL
Time zone: UTC -4 (UTC -5 during Standard Time)
Zip code: 33928

Airport Operations

Airport use: Private use. Permission required prior to landing
Activation date: 02/1987
Control tower: no
ARTCC: MIAMI CENTER
FSS: MIAMI FLIGHT SERVICE STATION
Attendance: UNATNDD
Wind indicator: yes
Segmented circle: no

Airport Communications

WX ASOS at RSW (10 nm NW): 124.65 (239-561-0966)
WX AWOS-3 at IMM (11 nm E): 118.525 (239-657-2038)
WX ASOS at FMY (16 nm NW): 123.725 (239-936-2318)
WX ASOS at APF (20 nm SW): 134.225 (239-643-9886)

Nearby radio navigation aids

VOR radial/distance  VOR name  Freq  Var
RSWr121/10.4LEE COUNTY VORTAC111.8002W
CYYr031/19.8CYPRESS VOR/DME108.6003W
LBVr206/25.7LA BELLE VORTAC110.4001E
PGDr150/(35.0)PUNTA GORDA VOR110.2006W

Airport Services

Runway Information

Runway 3/21

Dimensions: 4000 x 100 ft. / 1219 x 30 m
Surface: turf
RUNWAY 3  RUNWAY 21
Traffic pattern: rightright
Obstructions: treespline

Airport Ownership and Management from official FAA records

Ownership: Privately-owned
Owner: BOVINE BREEZE LLC
21400 CORKSCREW RD
ESTERO, FL 33928
Phone 239-947-1355
Manager: QUINN RUELLE
6018 CAJEPUT LANE
BONITA SPRINGS, FL 34134
Phone 239-537-5300

Airport Operational Statistics

Aircraft based on the field: 3
Single engine airplanes: 3
    

Additional Remarks

FOR CD CTC FORT MYERS APCH AT 239-768-1377, WHEN APCH CLSD CTC MIAMI ARTCC AT 305-716-1731.

Instrument Procedures

There are no published instrument procedures at 1FD4.

Some nearby airports with instrument procedures:

KRSW - Southwest Florida International Airport (10 nm NW)
KIMM - Immokalee Regional Airport (11 nm E)
KFMY - Page Field Airport (16 nm NW)
KAPF - Naples Municipal Airport (20 nm SW)
X14 - La Belle Municipal Airport (20 nm NE)
 
Loc | Ops | Rwys | IFR | FBO | Links
Com | Nav | Svcs | Stats | Notes


 
Area around 1FD4 (Corkscrew Trace Airpark)
 
Road maps at: MapQuest Bing Google
 
Aerial photo
No photo
 
Sectional chart

 
Airport distance calculator
Flying to Corkscrew Trace Airpark? Find the distance to fly.

From to 1FD4

Sunrise and sunset
Times for 19-Apr-2021
 Local
(UTC-4)
 Zulu
(UTC)
Morning civil twilight06:3610:36
Sunrise07:0011:00
Sunset19:5123:51
Evening civil twilight20:1500:15

Current date and time
Zulu (UTC)  19-Apr-2021 10:44:08
Local (UTC-4)  19-Apr-2021 06:44:08
 
METAR
KRSW 
10nm NW 
190953Z 21010KT 10SM CLR 26/22 A2985 RMK AO2 SLP106 T02560222
KIMM 
11nm E 
191015Z AUTO 18005KT 8SM FEW029 FEW033 SCT040 23/23 A2985 RMK AO2 LTG DSNT N AND W PWINO
KFMY 
16nm NW 
190953Z AUTO 20011G19KT 10SM FEW041 26/23 A2985 RMK AO2 LTG DSNT W SLP108 T02610233
TAF
KRSW 
10nm NW 
190540Z 1906/2006 19006KT P6SM BKN050 FM190800 17006KT P6SM VCTS SCT015CB BKN030 OVC050 FM191500 24015G20KT P6SM VCTS SCT025CB OVC050 FM200100 VRB03KT P6SM VCSH BKN025
KFMY 
16nm NW 
190540Z 1906/2006 18005KT P6SM OVC050 FM190800 20007KT P6SM VCTS SCT015CB BKN030 OVC050 FM191500 25012G18KT P6SM VCTS SCT025CB OVC050 FM200000 36006KT P6SM VCSH BKN025
NOTAMs
Click for the latest NOTAMs
NOTAMs are issued by the DoD/FAA and will open in a separate window not controlled by AirNav.

 

 
 

Would you like to see your business listed on this page?

 If your business provides an interesting product or service to pilots, flight crews, aircraft, or users of the Corkscrew Trace Airpark, you should consider listing it here.  To start the listing process, click on the button below
 
Add a business
 

Other Pages about Corkscrew Trace Airpark

Update a link
 
Copyright © AirNav, LLC. All rights reserved. Privacy Policy  Contact